• In Austria
  • List of Countries
  • For 7 days
  • Water Temperature
  • Satellite Maps
  • Weather Map
  • News
  • Weather Widgets
  • user-avatar
    Login

    Hourly Weather Wadzhda

    Today, 22 January, Monday

    Time Temperature Precipitation Wind Pressure Humidity
    00:00 +11°C° 0 mm 1 mps 720 mmHg 56%
    01:00 +10°C° 0 mm 1 mps 720 mmHg 56%
    02:00 +9°C° 0 mm 0 mps 720 mmHg 56%
    03:00 +9°C° 0 mm 0 mps 720 mmHg 56%
    04:00 +9°C° 0 mm 0 mps 719 mmHg 58%
    05:00 +9°C° 0 mm 1 mps 719 mmHg 59%
    06:00 +9°C° 0 mm 1 mps 719 mmHg 61%
    07:00 +11°C° 0 mm 1 mps 720 mmHg 56%
    08:00 +13°C° 0 mm 1 mps 720 mmHg 50%
    09:00 +15°C° 0 mm 1 mps 721 mmHg 45%
    10:00 +16°C° 0 mm 1 mps 721 mmHg 42%
    11:00 +18°C° 0 mm 1 mps 721 mmHg 38%
    12:00 +19°C° 0 mm 1 mps 721 mmHg 35%
    13:00 +19°C° 0 mm 1 mps 720 mmHg 35%
    14:00 +20°C° 0 mm 1 mps 720 mmHg 35%
    15:00 +20°C° 0 mm 1 mps 720 mmHg 35%
    16:00 +18°C° 0 mm 1 mps 719 mmHg 43%
    17:00 +15°C° 0 mm 1 mps 719 mmHg 50%
    18:00 +14°C° 0 mm 1 mps 719 mmHg 58%
    19:00 +12°C° 0 mm 0 mps 719 mmHg 59%
    20:00 +12°C° 0 mm 0 mps 719 mmHg 60%
    21:00 +11°C° 0 mm 0 mps 719 mmHg 60%
    22:00 +11°C° 0 mm 0 mps 719 mmHg 60%
    23:00 +11°C° 0 mm 0 mps 719 mmHg 60%

    Tomorrow, 23 January, Tuesday

    Time Temperature Precipitation Wind Pressure Humidity
    00:00 +10°C° 0 mm 0 mps 719 mmHg 59%
    01:00 +10°C° 0 mm 0 mps 719 mmHg 60%
    02:00 +10°C° 0 mm 0 mps 719 mmHg 61%
    03:00 +9°C° 0 mm 0 mps 719 mmHg 62%
    04:00 +9°C° 0 mm 0 mps 718 mmHg 64%
    05:00 +9°C° 0 mm 0 mps 718 mmHg 65%
    06:00 +9°C° 0 mm 0 mps 718 mmHg 67%
    07:00 +11°C° 0 mm 0 mps 719 mmHg 60%
    08:00 +12°C° 0 mm 0 mps 719 mmHg 53%
    09:00 +15°C° 0 mm 1 mps 720 mmHg 46%
    10:00 +16°C° 0 mm 1 mps 720 mmHg 42%
    11:00 +19°C° 0 mm 1 mps 720 mmHg 39%
    12:00 +20°C° 0 mm 1 mps 720 mmHg 35%
    13:00 +20°C° 0 mm 1 mps 720 mmHg 36%
    14:00 +20°C° 0 mm 1 mps 720 mmHg 36%
    15:00 +20°C° 0 mm 1 mps 719 mmHg 37%
    16:00 +18°C° 0 mm 1 mps 719 mmHg 45%
    17:00 +16°C° 0 mm 1 mps 719 mmHg 53%
    18:00 +14°C° 0 mm 1 mps 719 mmHg 61%
    19:00 +14°C° 0 mm 1 mps 719 mmHg 63%
    20:00 +13°C° 0 mm 1 mps 720 mmHg 64%
    21:00 +13°C° 0 mm 1 mps 720 mmHg 66%
    22:00 +12°C° 0 mm 1 mps 720 mmHg 66%
    23:00 +12°C° 0 mm 1 mps 720 mmHg 66%

    Day after tomorrow, 24 January, Wednesday

    Time Temperature Precipitation Wind Pressure Humidity
    00:00 +11°C° 0 mm 0 mps 720 mmHg 66%
    01:00 +10°C° 0 mm 0 mps 719 mmHg 66%
    02:00 +11°C° 0 mm 1 mps 719 mmHg 67%
    03:00 +11°C° 0 mm 1 mps 719 mmHg 67%
    04:00 +11°C° 0 mm 1 mps 719 mmHg 66%
    05:00 +10°C° 0 mm 1 mps 718 mmHg 66%
    06:00 +10°C° 0 mm 1 mps 718 mmHg 66%
    07:00 +12°C° 0 mm 1 mps 719 mmHg 60%
    08:00 +14°C° 0 mm 1 mps 720 mmHg 54%
    09:00 +15°C° 0 mm 1 mps 720 mmHg 48%
    10:00 +16°C° 0 mm 1 mps 720 mmHg 45%
    11:00 +19°C° 0 mm 1 mps 720 mmHg 41%
    12:00 +20°C° 0 mm 1 mps 720 mmHg 38%
    13:00 +20°C° 0 mm 1 mps 720 mmHg 38%
    14:00 +20°C° 0 mm 1 mps 719 mmHg 37%
    15:00 +21°C° 0 mm 1 mps 719 mmHg 37%
    16:00 +19°C° 0 mm 1 mps 719 mmHg 45%
    17:00 +16°C° 0 mm 1 mps 718 mmHg 53%
    18:00 +14°C° 0 mm 1 mps 718 mmHg 61%
    19:00 +14°C° 0 mm 1 mps 718 mmHg 62%
    20:00 +12°C° 0 mm 0 mps 719 mmHg 64%
    21:00 +12°C° 0 mm 0 mps 719 mmHg 65%
    22:00 +11°C° 0 mm 0 mps 719 mmHg 65%
    23:00 +12°C° 0 mm 1 mps 719 mmHg 65%

    25 January, Thursday

    Time Temperature Precipitation Wind Pressure Humidity
    00:00 +12°C° 0 mm 1 mps 718 mmHg 65%
    01:00 +11°C° 0 mm 1 mps 718 mmHg 65%
    02:00 +11°C° 0 mm 1 mps 718 mmHg 65%
    03:00 +11°C° 0 mm 1 mps 718 mmHg 65%
    04:00 +11°C° 0 mm 1 mps 718 mmHg 65%
    05:00 +10°C° 0 mm 1 mps 718 mmHg 64%
    06:00 +10°C° 0 mm 1 mps 717 mmHg 64%
    07:00 +12°C° 0 mm 1 mps 718 mmHg 60%
    08:00 +13°C° 0 mm 1 mps 719 mmHg 55%
    09:00 +14°C° 0 mm 1 mps 719 mmHg 50%
    10:00 +16°C° 0 mm 2 mps 719 mmHg 46%
    11:00 +17°C° 0 mm 2 mps 719 mmHg 43%
    12:00 +18°C° 0 mm 2 mps 719 mmHg 39%
    13:00 +18°C° 0 mm 2 mps 718 mmHg 38%
    14:00 +18°C° 0 mm 3 mps 717 mmHg 37%
    15:00 +19°C° 0 mm 3 mps 717 mmHg 36%
    16:00 +17°C° 0 mm 3 mps 717 mmHg 44%
    17:00 +15°C° 0 mm 2 mps 716 mmHg 52%
    18:00 +14°C° 0 mm 2 mps 716 mmHg 59%
    19:00 +13°C° 0 mm 1 mps 717 mmHg 63%
    20:00 +12°C° 0 mm 1 mps 717 mmHg 68%
    21:00 +12°C° 0 mm 1 mps 717 mmHg 72%
    22:00 +12°C° 0 mm 1 mps 717 mmHg 71%
    23:00 +12°C° 0 mm 1 mps 717 mmHg 69%

    26 January, Friday

    Time Temperature Precipitation Wind Pressure Humidity
    00:00 +10°C° 0 mm 2 mps 716 mmHg 67%
    01:00 +10°C° 0 mm 2 mps 716 mmHg 70%
    02:00 +10°C° 0 mm 2 mps 716 mmHg 74%
    03:00 +9°C° 0 mm 2 mps 716 mmHg 77%
    04:00 +9°C° 0 mm 2 mps 716 mmHg 78%
    05:00 +9°C° 0 mm 2 mps 716 mmHg 80%
    06:00 +9°C° 0 mm 3 mps 716 mmHg 81%
    07:00 +9°C° 0.2 mm 3 mps 716 mmHg 81%
    08:00 +8°C° 0.2 mm 4 mps 717 mmHg 82%
    09:00 +8°C° 0.2 mm 5 mps 717 mmHg 82%
    10:00 +8°C° 0.4 mm 5 mps 717 mmHg 74%
    11:00 +8°C° 0.4 mm 6 mps 717 mmHg 66%
    12:00 +8°C° 0.4 mm 6 mps 718 mmHg 59%
    13:00 +7°C° 0.1 mm 8 mps 718 mmHg 56%
    14:00 +7°C° 0.1 mm 9 mps 718 mmHg 54%
    15:00 +7°C° 0.1 mm 11 mps 718 mmHg 52%
    16:00 +6°C° 0.1 mm 9 mps 718 mmHg 59%
    17:00 +5°C° 0.1 mm 7 mps 719 mmHg 67%
    18:00 +5°C° 0.1 mm 5 mps 719 mmHg 74%
    19:00 +5°C° 0.1 mm 4 mps 719 mmHg 76%
    20:00 +5°C° 0.1 mm 3 mps 720 mmHg 77%
    21:00 +4°C° 0.1 mm 3 mps 720 mmHg 79%
    22:00 +4°C° 0.2 mm 3 mps 720 mmHg 79%
    23:00 +4°C° 0.2 mm 3 mps 720 mmHg 80%

    27 January, Saturday

    Time Temperature Precipitation Wind Pressure Humidity
    00:00 +4°C° 0.2 mm 3 mps 720 mmHg 80%
    01:00 +3°C° 0.3 mm 3 mps 720 mmHg 79%
    02:00 +3°C° 0.3 mm 3 mps 720 mmHg 77%
    03:00 +3°C° 0.3 mm 3 mps 719 mmHg 76%
    04:00 +3°C° 0.2 mm 3 mps 719 mmHg 76%
    05:00 +3°C° 0.2 mm 3 mps 719 mmHg 75%
    06:00 +3°C° 0.2 mm 3 mps 719 mmHg 75%
    07:00 +3°C° 0.1 mm 4 mps 719 mmHg 73%
    08:00 +4°C° 0.1 mm 4 mps 719 mmHg 70%
    09:00 +5°C° 0.1 mm 4 mps 720 mmHg 68%
    10:00 +5°C° 0.4 mm 5 mps 719 mmHg 67%
    11:00 +6°C° 0.4 mm 5 mps 719 mmHg 66%
    12:00 +5°C° 0.4 mm 6 mps 719 mmHg 65%
    13:00 +5°C° 0.4 mm 6 mps 719 mmHg 65%
    14:00 +5°C° 0.4 mm 6 mps 718 mmHg 65%
    15:00 +5°C° 0.4 mm 6 mps 718 mmHg 65%
    16:00 +5°C° 0.2 mm 5 mps 718 mmHg 68%
    17:00 +5°C° 0.2 mm 4 mps 718 mmHg 71%
    18:00 +4°C° 0.2 mm 3 mps 718 mmHg 74%
    19:00 +4°C° 0.2 mm 2 mps 718 mmHg 76%
    20:00 +4°C° 0.2 mm 2 mps 718 mmHg 78%
    21:00 +5°C° 0.2 mm 1 mps 718 mmHg 80%
    22:00 +5°C° 0.1 mm 1 mps 718 mmHg 81%
    23:00 +4°C° 0.1 mm 1 mps 718 mmHg 81%
    Show more